�������l�o���
Date,Time,MP-1(��Sv/h),MP-2(��Sv/h),MP-3(��Sv/h),MP-4(��Sv/h),MP-5(��Sv/h),MP-6(��Sv/h),MP-7(��Sv/h),MP-8(��Sv/h),����,����(m/s),���J
2024/01/12,00:00,0.512,0.774,0.486,0.982,0.696,0.313,0.560,0.525,��,2.3,��
2024/01/12,00:10,0.512,0.775,0.485,0.981,0.697,0.313,0.560,0.526,��,3.0,��
2024/01/12,00:20,0.510,0.773,0.488,0.980,0.695,0.313,0.560,0.527,��,3.5,��
2024/01/12,00:30,0.510,0.773,0.487,0.984,0.696,0.313,0.561,0.525,��,3.1,��
2024/01/12,00:40,0.510,0.775,0.485,0.983,0.698,0.314,0.561,0.526,��,3.1,��
2024/01/12,00:50,0.510,0.773,0.485,0.979,0.696,0.313,0.560,0.526,��쐼,3.8,��
2024/01/12,01:00,0.510,0.775,0.485,0.983,0.696,0.313,0.559,0.526,��쐼,3.8,��
2024/01/12,01:10,0.512,0.774,0.486,0.980,0.696,0.314,0.560,0.526,��쐼,4.6,��
2024/01/12,01:20,0.511,0.775,0.486,0.981,0.696,0.314,0.559,0.527,��쐼,4.5,��
2024/01/12,01:30,0.510,0.773,0.484,0.980,0.695,0.312,0.559,0.525,��쐼,4.3,��
2024/01/12,01:40,0.512,0.774,0.485,0.983,0.696,0.313,0.559,0.524,�쐼,4.9,��
2024/01/12,01:50,0.511,0.774,0.486,0.979,0.697,0.312,0.560,0.526,�쐼,5.0,��
2024/01/12,02:00,0.512,0.774,0.485,0.983,0.695,0.312,0.561,0.527,��쐼,3.9,��
2024/01/12,02:10,0.511,0.774,0.485,0.980,0.696,0.313,0.559,0.527,��쐼,4.3,��
2024/01/12,02:20,0.513,0.774,0.486,0.983,0.697,0.314,0.561,0.525,��쐼,4.8,��
2024/01/12,02:30,0.511,0.773,0.486,0.980,0.697,0.313,0.559,0.524,��쐼,5.5,��
2024/01/12,02:40,0.511,0.775,0.484,0.982,0.695,0.314,0.561,0.525,�쐼,4.5,��
2024/01/12,02:50,0.511,0.774,0.485,0.982,0.696,0.313,0.561,0.525,�쐼,4.2,��
2024/01/12,03:00,0.511,0.775,0.487,0.983,0.696,0.312,0.560,0.525,�쐼,3.8,��
2024/01/12,03:10,0.511,0.776,0.484,0.980,0.696,0.314,0.561,0.525,�쐼,2.6,��
2024/01/12,03:20,0.511,0.773,0.485,0.984,0.697,0.313,0.560,0.525,��쐼,1.7,��
2024/01/12,03:30,0.512,0.775,0.487,0.982,0.694,0.314,0.559,0.525,��쐼,1.9,��
2024/01/12,03:40,0.510,0.776,0.485,0.983,0.696,0.313,0.560,0.527,��쐼,3.1,��
2024/01/12,03:50,0.510,0.776,0.487,0.982,0.696,0.312,0.560,0.526,�쐼,3.8,��
2024/01/12,04:00,0.510,0.773,0.486,0.981,0.696,0.313,0.561,0.525,�쐼,8.1,��
2024/01/12,04:10,0.510,0.774,0.486,0.980,0.695,0.313,0.560,0.526,�쐼,9.4,��
2024/01/12,04:20,0.512,0.775,0.486,0.982,0.694,0.313,0.562,0.525,�쐼,9.5,��
2024/01/12,04:30,0.511,0.773,0.486,0.981,0.697,0.314,0.560,0.525,�쐼,10.2,��
2024/01/12,04:40,0.511,0.774,0.488,0.983,0.696,0.314,0.562,0.525,�쐼,10.2,��
2024/01/12,04:50,0.510,0.776,0.485,0.982,0.696,0.314,0.562,0.525,�쐼,11.1,��
2024/01/12,05:00,0.513,0.774,0.486,0.984,0.697,0.312,0.561,0.527,�쐼,12.0,��
2024/01/12,05:10,0.511,0.775,0.487,0.982,0.696,0.314,0.561,0.526,�쐼,12.4,��
2024/01/12,05:20,0.513,0.774,0.487,0.983,0.696,0.314,0.562,0.527,�쐼,12.5,��
2024/01/12,05:30,0.513,0.774,0.488,0.983,0.697,0.314,0.563,0.525,�쐼,11.0,��
2024/01/12,05:40,0.511,0.772,0.488,0.982,0.695,0.314,0.562,0.526,��쐼,11.3,��
2024/01/12,05:50,0.513,0.776,0.486,0.983,0.697,0.315,0.563,0.525,��쐼,10.0,��
2024/01/12,06:00,0.511,0.774,0.487,0.981,0.696,0.313,0.562,0.526,�쐼,9.5,��
2024/01/12,06:10,0.513,0.774,0.488,0.982,0.695,0.314,0.562,0.527,�쐼,10.5,��
2024/01/12,06:20,0.514,0.773,0.486,0.983,0.698,0.314,0.561,0.527,�쐼,11.3,��
2024/01/12,06:30,0.512,0.772,0.487,0.984,0.696,0.315,0.561,0.526,�쐼,10.3,��
2024/01/12,06:40,0.514,0.774,0.488,0.982,0.696,0.315,0.562,0.527,�쐼,10.7,��
2024/01/12,06:50,0.511,0.774,0.488,0.984,0.697,0.316,0.562,0.527,�쐼,9.3,��
2024/01/12,07:00,0.512,0.776,0.487,0.983,0.697,0.314,0.562,0.527,�쐼,9.4,��
2024/01/12,07:10,0.512,0.776,0.488,0.984,0.698,0.314,0.562,0.526,�쐼,10.2,��
2024/01/12,07:20,0.513,0.774,0.487,0.984,0.697,0.315,0.562,0.527,�쐼,9.6,��
2024/01/12,07:30,0.513,0.776,0.487,0.982,0.697,0.314,0.562,0.527,�쐼,10.0,��
2024/01/12,07:40,0.514,0.775,0.486,0.983,0.697,0.314,0.563,0.526,�쐼,9.9,��
2024/01/12,07:50,0.513,0.777,0.487,0.983,0.696,0.314,0.564,0.528,��쐼,8.7,��
2024/01/12,08:00,0.514,0.777,0.486,0.985,0.697,0.314,0.563,0.526,��쐼,7.8,��
2024/01/12,08:10,0.513,0.779,0.487,0.983,0.697,0.315,0.562,0.527,��쐼,7.6,��
2024/01/12,08:20,0.515,0.776,0.487,0.984,0.697,0.315,0.563,0.529,�쐼,6.9,��
2024/01/12,08:30,0.515,0.778,0.488,0.983,0.698,0.314,0.564,0.528,��쐼,6.4,��
2024/01/12,08:40,0.514,0.777,0.486,0.985,0.696,0.314,0.564,0.528,�쐼,5.7,��
2024/01/12,08:50,0.513,0.776,0.486,0.985,0.697,0.313,0.564,0.528,�쐼,5.9,��
2024/01/12,09:00,0.512,0.778,0.488,0.986,0.698,0.315,0.564,0.528,�쐼,7.0,��
2024/01/12,09:10,0.513,0.778,0.487,0.985,0.698,0.315,0.565,0.528,�쐼,8.3,��
2024/01/12,09:20,0.514,0.777,0.485,0.986,0.697,0.314,0.566,0.528,�쐼,6.0,��
2024/01/12,09:30,0.514,0.777,0.488,0.986,0.699,0.315,0.564,0.528,��쐼,4.8,��
2024/01/12,09:40,0.514,0.778,0.486,0.984,0.701,0.314,0.565,0.528,��쐼,4.1,��
2024/01/12,09:50,0.515,0.778,0.487,0.983,0.700,0.315,0.565,0.530,��쐼,3.3,��
2024/01/12,10:00,0.515,0.779,0.488,0.983,0.700,0.314,0.566,0.529,��,2.8,��
2024/01/12,10:10,0.515,0.777,0.488,0.983,0.699,0.315,0.562,0.525,��쓌,3.9,��
2024/01/12,10:20,0.515,0.778,0.489,0.987,0.700,0.314,0.562,0.528,��쓌,2.6,��
2024/01/12,10:30,0.516,0.776,0.487,0.985,0.700,0.316,0.562,0.526,��쓌,3.4,��
2024/01/12,10:40,0.516,0.776,0.488,0.986,0.700,0.315,0.560,0.528,��쓌,1.9,��
2024/01/12,10:50,0.515,0.779,0.489,0.984,0.699,0.315,0.562,0.527,�쓌,3.1,��
2024/01/12,11:00,0.517,0.780,0.488,0.983,0.702,0.315,0.561,0.527,���쓌,1.4,��
2024/01/12,11:10,0.517,0.778,0.489,0.986,0.702,0.315,0.563,0.529,���쐼,4.4,��
2024/01/12,11:20,0.515,0.777,0.488,0.988,0.700,0.317,0.562,0.527,�쐼,4.7,��
2024/01/12,11:30,0.516,0.778,0.489,0.985,0.700,0.317,0.562,0.532,��,3.4,��
2024/01/12,11:40,0.514,0.778,0.490,0.986,0.702,0.316,0.562,0.528,�쐼,2.0,��
2024/01/12,11:50,0.513,0.778,0.489,0.986,0.702,0.316,0.563,0.528,���쐼,6.1,��
2024/01/12,12:00,0.514,0.779,0.490,0.987,0.703,0.316,0.563,0.529,�쐼,8.2,��
2024/01/12,12:10,0.514,0.778,0.488,0.987,0.702,0.314,0.563,0.529,���쐼,8.3,��
2024/01/12,12:20,0.515,0.779,0.489,0.987,0.703,0.315,0.562,0.530,�쐼,6.4,��
2024/01/12,12:30,0.514,0.777,0.491,0.987,0.700,0.315,0.562,0.529,���쐼,6.5,��
2024/01/12,12:40,0.516,0.776,0.489,0.987,0.700,0.315,0.563,0.529,���쐼,10.7,��
2024/01/12,12:50,0.517,0.779,0.491,0.988,0.699,0.316,0.563,0.529,�쐼,9.9,��
2024/01/12,13:00,0.515,0.778,0.491,0.988,0.699,0.315,0.563,0.528,��,9.3,��
2024/01/12,13:10,0.515,0.777,0.490,0.987,0.703,0.316,0.563,0.527,��,8.7,��
2024/01/12,13:20,0.513,0.778,0.491,0.985,0.701,0.319,0.562,0.527,��,10.5,��
2024/01/12,13:30,0.514,0.779,0.488,0.986,0.700,0.317,0.562,0.527,��,8.7,��
2024/01/12,13:40,0.514,0.778,0.489,0.986,0.700,0.316,0.562,0.527,���쐼,8.3,��
2024/01/12,13:50,0.514,0.776,0.489,0.987,0.702,0.317,0.563,0.527,��,5.9,��
2024/01/12,14:00,0.514,0.778,0.489,0.989,0.701,0.317,0.564,0.526,��,7.7,��
2024/01/12,14:10,0.516,0.778,0.489,0.986,0.702,0.318,0.562,0.526,���k��,8.5,��
2024/01/12,14:20,0.515,0.777,0.489,0.987,0.702,0.317,0.564,0.528,���k��,8.8,��
2024/01/12,14:30,0.514,0.778,0.487,0.990,0.704,0.316,0.565,0.526,���k��,6.2,��
2024/01/12,14:40,0.515,0.780,0.489,0.989,0.704,0.316,0.564,0.529,��,5.7,��
2024/01/12,14:50,0.515,0.776,0.491,0.989,0.702,0.318,0.564,0.528,���k��,5.1,��
2024/01/12,15:00,0.514,0.777,0.490,0.990,0.704,0.316,0.565,0.529,��,6.7,��
2024/01/12,15:10,0.516,0.778,0.488,0.989,0.703,0.316,0.565,0.530,���k��,7.1,��
2024/01/12,15:20,0.514,0.782,0.489,0.988,0.702,0.316,0.564,0.531,���k��,6.4,��
2024/01/12,15:30,0.515,0.782,0.489,0.989,0.703,0.317,0.565,0.531,���k��,6.4,��
2024/01/12,15:40,0.514,0.781,0.491,0.986,0.703,0.319,0.565,0.531,���k��,7.0,��
2024/01/12,15:50,0.516,0.781,0.490,0.989,0.701,0.315,0.566,0.530,���k��,7.4,��
2024/01/12,16:00,0.517,0.782,0.489,0.990,0.701,0.317,0.564,0.531,���k��,4.6,��
2024/01/12,16:10,0.514,0.783,0.491,0.988,0.701,0.316,0.565,0.531,�k��,5.8,��
2024/01/12,16:20,0.517,0.781,0.491,0.989,0.701,0.316,0.566,0.530,�k��,5.5,��
2024/01/12,16:30,0.517,0.783,0.491,0.989,0.702,0.316,0.565,0.528,���k��,8.2,��
2024/01/12,16:40,0.516,0.782,0.490,0.989,0.700,0.316,0.563,0.530,���k��,6.4,��
2024/01/12,16:50,0.517,0.782,0.488,0.987,0.705,0.315,0.564,0.530,�k��,3.2,��
2024/01/12,17:00,0.516,0.784,0.489,0.990,0.704,0.316,0.565,0.529,�k��,1.4,��
2024/01/12,17:10,0.516,0.779,0.489,0.991,0.703,0.316,0.567,0.529,�k��,0.8,��
2024/01/12,17:20,0.517,0.781,0.491,0.990,0.703,0.317,0.566,0.529,��쐼,1.5,��
2024/01/12,17:30,0.517,0.780,0.489,0.990,0.702,0.317,0.566,0.529,-,CALM,��
2024/01/12,17:40,0.517,0.781,0.490,0.990,0.704,0.316,0.564,0.530,�k,1.8,��
2024/01/12,17:50,0.516,0.783,0.490,0.986,0.703,0.317,0.564,0.530,�k�k��,1.1,��
2024/01/12,18:00,0.517,0.783,0.490,0.987,0.703,0.315,0.566,0.530,�k�k��,1.4,��
2024/01/12,18:10,0.516,0.781,0.489,0.986,0.703,0.315,0.566,0.529,��,1.9,��
2024/01/12,18:20,0.516,0.780,0.489,0.988,0.702,0.316,0.564,0.528,�k�k��,2.5,��
2024/01/12,18:30,0.516,0.781,0.488,0.990,0.704,0.315,0.565,0.528,���k��,4.4,��
2024/01/12,18:40,0.516,0.780,0.490,0.986,0.704,0.316,0.563,0.529,�k��,5.6,��
2024/01/12,18:50,0.515,0.780,0.489,0.988,0.701,0.316,0.563,0.528,���k��,4.2,��
2024/01/12,19:00,0.517,0.781,0.488,0.988,0.703,0.315,0.564,0.529,���k��,3.2,��
2024/01/12,19:10,0.516,0.780,0.489,0.989,0.700,0.315,0.566,0.530,���k��,2.6,��
2024/01/12,19:20,0.515,0.781,0.489,0.989,0.702,0.316,0.564,0.528,�k��,2.9,��
2024/01/12,19:30,0.516,0.782,0.489,0.987,0.703,0.316,0.564,0.528,�k��,4.5,��
2024/01/12,19:40,0.516,0.781,0.488,0.989,0.702,0.316,0.564,0.528,�k��,4.3,�L
2024/01/12,19:50,0.517,0.779,0.489,0.990,0.701,0.316,0.565,0.527,���k��,4.2,�L
2024/01/12,20:00,0.516,0.781,0.489,0.989,0.704,0.316,0.564,0.528,���k��,2.8,�L
2024/01/12,20:10,0.515,0.781,0.489,0.989,0.703,0.315,0.563,0.528,���쐼,1.4,��
2024/01/12,20:20,0.515,0.783,0.489,0.987,0.703,0.316,0.565,0.528,���쐼,1.8,��
2024/01/12,20:30,0.516,0.781,0.490,0.987,0.703,0.316,0.564,0.527,�k��,2.5,��
2024/01/12,20:40,0.516,0.782,0.488,0.989,0.703,0.316,0.564,0.528,�k�k��,2.8,��
2024/01/12,20:50,0.517,0.781,0.489,0.987,0.701,0.316,0.563,0.528,�k��,2.5,��
2024/01/12,21:00,0.516,0.780,0.490,0.988,0.703,0.315,0.563,0.526,���k��,2.9,��
2024/01/12,21:10,0.516,0.782,0.488,0.988,0.703,0.315,0.563,0.528,��,2.5,��
2024/01/12,21:20,0.515,0.781,0.488,0.990,0.701,0.315,0.564,0.528,���k��,4.8,��
2024/01/12,21:30,0.517,0.781,0.489,0.986,0.703,0.315,0.564,0.526,�k��,2.2,�L
2024/01/12,21:40,0.516,0.782,0.489,0.990,0.703,0.317,0.563,0.528,��,1.5,�L
2024/01/12,21:50,0.517,0.781,0.491,0.989,0.705,0.316,0.563,0.526,���k��,1.2,��
2024/01/12,22:00,0.516,0.780,0.488,0.991,0.703,0.317,0.563,0.528,���k��,1.2,��
2024/01/12,22:10,0.515,0.780,0.489,0.989,0.705,0.316,0.562,0.529,�k�k��,1.9,��
2024/01/12,22:20,0.516,0.783,0.490,0.987,0.704,0.315,0.562,0.527,�k��,1.4,��
2024/01/12,22:30,0.516,0.782,0.489,0.988,0.703,0.315,0.564,0.526,�k��,1.4,��
2024/01/12,22:40,0.518,0.781,0.489,0.988,0.703,0.316,0.563,0.528,���k��,1.9,��
2024/01/12,22:50,0.516,0.781,0.490,0.989,0.703,0.317,0.565,0.527,���쐼,1.5,�L
2024/01/12,23:00,0.515,0.780,0.488,0.988,0.703,0.316,0.563,0.528,���쐼,1.4,�L
2024/01/12,23:10,0.516,0.783,0.489,0.988,0.702,0.316,0.564,0.526,���쐼,2.0,��
2024/01/12,23:20,0.516,0.780,0.488,0.989,0.705,0.315,0.564,0.526,���쐼,1.9,��
2024/01/12,23:30,0.516,0.783,0.490,0.987,0.704,0.315,0.563,0.526,�쐼,1.9,��
2024/01/12,23:40,0.517,0.780,0.489,0.989,0.703,0.317,0.564,0.528,�쐼,1.5,��
2024/01/12,23:50,0.517,0.781,0.490,0.989,0.702,0.315,0.563,0.527,��,2.9,��
